Home > Weather > Copenhagen > Past weeks

Flag for Denmark Weather for the Past 2 Weeks in Copenhagen, Denmark

Now
34 °F

Clear.


Feels Like: 23 °F
Forecast: 26 / 34 °F
Wind: 16 mph from Northeast

Location: Koebenhavn-Kastrup Airport

Current Time: Feb 15, 2016 at 12:34:55 AM

Latest Report: Feb 14, 2016 at 11:50 PM


Visibility: 10 mi

Pressure: 29.59 "Hg

Humidity: 87%

Dew point: 30 °F

Location of CopenhagenLocation

Historic Weather in Copenhagen — Graph

°F

Copenhagen Temperature Yesterday

Maximum temperature yesterday: 36 °F (at 11:50 AM)
Minimum temperature yesterday: 30 °F (at 12:20 AM)
Average temperature yesterday: 34 °F

High & Low Weather Summary for the Past Weeks

 TemperatureHumidityPressure
High48 °F (Feb 1, 7:20 PM)100% (Feb 1, 6:20 AM)30.09 "Hg (Feb 1, 6:20 AM)
Low28 °F (Feb 12, 7:50 PM)56% (Feb 12, 2:20 PM)28.80 "Hg (Feb 10, 2:21 AM)
Average38 °F87%29.49 "Hg
* Reported Jan 30 11:20 PM — Feb 14 11:20 PM, Copenhagen, Weather by CustomWeather, © 2016

Note: Actual official high and low records may vary slightly from our data, if they occured in-between our weather recording intervals... More about our weather records

Advertising

Copenhagen Weather History for the Previous 24 Hours

 ConditionsComfort  
Time TempWeatherWind HumidityBarometerVisibility
11:20 PM
Sun, Feb 14
34 °FPartly cloudy.16 mph87%29.59 "HgN/A
10:50 PM34 °FPartly cloudy.15 mph87%29.59 "HgN/A
10:20 PM34 °FPartly cloudy.14 mph87%29.59 "HgN/A
9:50 PM34 °FClear.13 mph87%29.59 "Hg10 mi
9:20 PM34 °FClear.14 mph87%29.56 "Hg10 mi
8:50 PM36 °FClear.15 mph81%29.56 "Hg10 mi
8:20 PM34 °FClear.15 mph87%29.56 "Hg10 mi
7:50 PM34 °FClear.14 mph87%29.53 "Hg10 mi
7:20 PM34 °FClear.13 mph87%29.53 "Hg10 mi
6:50 PM36 °FPassing clouds.13 mph81%29.53 "HgN/A
6:20 PM34 °FPassing clouds.12 mph93%29.50 "HgN/A
5:50 PM34 °FPassing clouds.9 mph87%29.50 "HgN/A
5:20 PM36 °FPassing clouds.14 mph87%29.47 "HgN/A
4:50 PM36 °FPartly sunny.14 mph87%29.47 "HgN/A
4:20 PM36 °FPartly sunny.13 mph87%29.47 "HgN/A
3:50 PM36 °FPartly sunny.15 mph87%29.45 "HgN/A
3:20 PM36 °FPartly sunny.14 mph87%29.45 "HgN/A
2:50 PM36 °FPartly sunny.13 mph87%29.45 "HgN/A
2:20 PM36 °FPartly sunny.13 mph87%29.45 "HgN/A
1:50 PM36 °FPartly sunny.14 mph87%29.42 "HgN/A
1:20 PM36 °FPartly sunny.13 mph87%29.42 "HgN/A
12:50 PM36 °FPartly sunny.12 mph87%29.42 "HgN/A
12:20 PM36 °FSunny.13 mph87%29.42 "Hg10 mi
11:50 AM36 °FSunny.12 mph87%29.42 "Hg10 mi
11:20 AM34 °FPartly sunny.12 mph93%29.42 "HgN/A
10:50 AM34 °FPartly sunny.10 mph93%29.42 "HgN/A
10:20 AM34 °FPartly sunny.12 mph93%29.42 "HgN/A
9:50 AM34 °FPartly sunny.12 mph93%29.39 "HgN/A
9:20 AM34 °FPartly sunny.12 mph93%29.39 "HgN/A
8:20 AM34 °FPartly sunny.13 mph87%29.39 "HgN/A
7:50 AM34 °FBroken clouds.13 mph87%29.39 "HgN/A
7:20 AM34 °FPassing clouds.10 mph87%29.39 "HgN/A
6:50 AM32 °FPassing clouds.12 mph93%29.39 "HgN/A
6:20 AM32 °FPassing clouds.13 mph93%29.39 "HgN/A
5:50 AM34 °FPassing clouds.12 mph87%29.39 "HgN/A
5:20 AM34 °FPassing clouds.13 mph87%29.39 "Hg4 mi
4:50 AM32 °FPassing clouds.13 mph100%29.39 "Hg4 mi
4:20 AM32 °FIce fog.10 mph100%29.39 "Hg1 mi
3:50 AM32 °FIce fog.9 mph100%29.39 "Hg1 mi
3:20 AM32 °FFog.10 mph100%29.39 "Hg1 mi
2:47 AM32 °FFog.9 mph100%29.39 "Hg1 mi
2:20 AM32 °FIce fog.7 mph100%29.39 "Hg1 mi
1:50 AM32 °FIce fog.8 mph100%29.39 "Hg2 mi
1:20 AM32 °FIce fog.7 mph100%29.39 "Hg2 mi
12:50 AM32 °FIce fog.6 mph100%29.42 "Hg2 mi
12:20 AM30 °FIce fog.7 mph93%29.42 "Hg2 mi
Weather by CustomWeather, © 2016

See weather overviewHow to use our weather pages